Tiempo atmosférico en la estación meteorológica de Agulo, Santa Cruz de Tenerife (765 m.)

Fecha
DESCASC
Temp. máxima en grados centígrados (hora)
DESCASC
Temp. mínima en grados centígrados (hora)
DESCASC
Temp. media en grados centígrados
DESCASC
Racha de viento máxima en m/sg (hora)
DESCASC
Velocidad máxima media en intervalos de 10 minutos(hora)
DESCASC
Precipitaciones diarias en mm
DESCASC
Precipitaciones de 00:00 a 06:00 en mm
DESCASC
Precipitaciones de 06:00 a 12:00 en mm
DESCASC
Precipitaciones de 12:00 a 18:00 en mm
DESCASC
Precipitaciones de 18:00 a 24:00 en mm
DESCASC
10-12-2017 17.8 (14:10) 10.9 (04:30) 14.3 5 (09:30) 3.89 (09:30) 0 0 0 0 0
09-12-2017 19.1 (13:30) 10.8 (00:10) 15 8.06 (09:30) 4.17 (09:20) 0 0 0 0 0
08-12-2017 18.9 (12:20) 10.7 (08:10) 14.8 16.39 (04:50) 9.72 (03:50) 0 0 0 0 0
07-12-2017 17.7 (15:40) 10.5 (00:00) 14.1 13.89 (11:40) 8.61 (11:20) 0 0 0 0 0
06-12-2017 17.5 (12:50) 11.5 (00:00) 14.5 18.89 (10:30) 10.83 (07:10) 0 0 0 0 0
05-12-2017 20.8 (14:10) 12.2 (00:00) 16.5 15.83 (11:40) 9.44 (10:10) 0 0 0 0 0
04-12-2017 15.5 (12:20) 12.5 (00:00) 14 5.56 (00:50) 2.22 (04:30) 0 0 0 0 0
03-12-2017 16.1 (14:30) 13.2 (00:00) 14.7 5.28 (23:50) 2.78 (06:00) 0 0 0 0 0
02-12-2017 18.7 (15:40) 14.6 (00:00) 16.7 3.61 (14:10) 2.5 (04:00) 0 0 0 0 0
01-12-2017 22.6 (13:10) 14.6 (00:00) 18.6 5.56 (08:10) 3.89 (08:00) 0 0 0 0 0
30-11-2017 19.7 (12:20) 15.2 (00:00) 17.5 10.56 (07:20) 8.61 (07:10) 0 0 0 0 0
29-11-2017 24.7 (12:30) 15.4 (00:00) 20.1 8.33 (17:40) 5.28 (22:30) 0 0 0 0 0
28-11-2017 24.2 (13:10) 17.1 (00:00) 20.7 5 (23:10) 3.61 (06:40) 0 0 0 0 0
27-11-2017 28.2 (13:40) 18.9 (00:00) 23.6 13.33 (07:10) 9.17 (07:40) 0 0 0 0 0
26-11-2017 19.9 (00:10) 17.1 (00:00) 18.5 17.5 (01:30) 12.5 (01:10) 0 0 0 0 0
25-11-2017 21.5 (03:20) 17.2 (00:00) 19.4 18.89 (02:30) 13.06 (19:00) 0 0 0 0 0
24-11-2017 24.8 (14:50) 15.5 (00:00) 20.1 12.78 (12:10) 7.5 (17:30) 0 0 0 0 0
23-11-2017 24.2 (12:20) 15.1 (00:00) 19.7 6.94 (23:59) 5.28 (07:00) 0 0 0 0 0
22-11-2017 25.1 (13:20) 15.2 (00:00) 20.2 13.89 (01:00) 9.17 (00:50) 0 0 0 0 0
21-11-2017 19.6 (13:20) 16.8 (00:00) 18.2 21.11 (07:00) 13.33 (23:00) 0 0 0 0 0
20-11-2017 22.8 (13:50) 13.3 (00:00) 18 16.39 (22:10) 10 (22:00) 0 0 0 0 0
19-11-2017 16.8 (13:00) 13.2 (00:00) 15 7.78 (18:50) 3.33 (01:00) 0 0 0 0 0
18-11-2017 20.4 (11:30) 13 (00:00) 16.7 5.56 (07:40) 4.17 (07:30) 0 0 0 0 0
17-11-2017 19.6 (14:00) 13.5 (00:00) 16.6 8.06 (01:00) 4.17 (16:30) 0 0 0 0 0
16-11-2017 21.1 (12:40) 12.8 (00:00) 17 5 (23:20) 3.61 (23:30) 0 0 0 0 0
15-11-2017 20.6 (12:50) 12.6 (00:00) 16.6 5.83 (14:00) 2.22 (06:20) 0 0 0 0 0

Gráficas

Temp. máximas Temp. mínimas Temp. medias Precipitaciones Rachas de viento máximas Velocidades máximas media en intervalos de 10 minutos

Datos horarios

Fecha y hora oficial Temperatura (ºC) Velocidad del viento (km/h) Dirección del viento Racha (km/h) Dirección de racha Precipitación (mm) Presión (hPa) Tendencia (hPa) Humedad (%)
2017-12-14 23:00:00 11.4 8 Este 23 Nordeste 0 -- -- 86
2017-12-14 22:00:00 11.4 6 Este 19 Este 0 -- -- 87
2017-12-14 21:00:00 11.6 4 Sudeste 17 Este 0 -- -- 88
2017-12-14 20:00:00 11.8 4 Sur 10 Sur 0 -- -- 89
2017-12-14 19:00:00 11.9 4 Sudeste 12 Sudeste 0 -- -- 89
2017-12-14 18:00:00 12.3 4 Sur 15 Sudeste 0 -- -- 89
2017-12-14 17:00:00 12.4 4 Sur 17 Nordeste 0 -- -- 89
2017-12-14 16:00:00 12.9 4 Sur 13 Este 0 -- -- 86
2017-12-14 15:00:00 13.7 4 Sur 12 Sudeste 0 -- -- 84
2017-12-14 14:00:00 14.6 5 Sudeste 15 Este 0 -- -- 80
2017-12-14 13:00:00 14 4 Este 15 Este 0 -- -- 87
2017-12-14 12:00:00 13.4 3 Sudeste 12 Sudeste 0 -- -- 86
2017-12-14 11:00:00 13.2 4 Sudoeste 12 Sudeste 0 -- -- 86
2017-12-14 10:00:00 12.3 3 Oeste 12 Este 0 -- -- 90
2017-12-14 09:00:00 11.6 4 Este 11 Sur 0 -- -- 92
2017-12-14 08:00:00 11.4 5 Sudeste 14 Este 0 -- -- 93
2017-12-14 07:00:00 11.4 4 Sur 19 Nordeste 0 -- -- 92
2017-12-14 06:00:00 11.2 6 Este 21 Este 0 -- -- 90
2017-12-14 05:00:00 11.3 6 Sudeste 21 Sudeste 0 -- -- 90
2017-12-14 04:00:00 11.3 8 Sudeste 23 Este 0 -- -- 89
2017-12-14 03:00:00 11.3 10 Sudeste 24 Sudeste 0 -- -- 88
2017-12-14 02:00:00 11.3 13 Este 36 Sudeste 0 -- -- 85
2017-12-14 01:00:00 11.4 13 Este 29 Este 0 -- -- 86
2017-12-14 00:00:00 11.4 11 Sudeste 33 Nordeste 0 -- -- 86
2017-12-13 23:00:00 11.1 12 Sudeste 42 Este 0 -- -- 78
2017-12-13 22:00:00 11.2 14 Este 32 Sudeste 0 -- -- 79
2017-12-13 21:00:00 11.5 14 Este 40 Sudeste 0 -- -- 84
2017-12-13 20:00:00 11.9 13 Este 38 Nordeste 0 -- -- 90
2017-12-13 19:00:00 11.8 15 Sudeste 37 Sudeste 0 -- -- 90
2017-12-13 18:00:00 11.8 14 Este 42 Nordeste 0 -- -- 78
2017-12-13 17:00:00 12.2 17 Este 43 Sudeste 0 -- -- 79
2017-12-13 16:00:00 13.7 15 Este 42 Sur 0 -- -- 78
2017-12-13 15:00:00 13 13 Sudeste 33 Este 0 -- -- 83
2017-12-13 14:00:00 12.4 14 Sudeste 41 Este 0 -- -- 79
2017-12-13 13:00:00 13.8 13 Este 42 Nordeste 0 -- -- 77
2017-12-13 12:00:00 12.6 17 Este 45 Este 0 -- -- 89
2017-12-13 11:00:00 13.4 15 Sudeste 40 Sudeste 0 -- -- 86
2017-12-13 10:00:00 12.1 15 Sudeste 35 Este 0 -- -- 93
2017-12-13 09:00:00 11.8 12 Este 36 Nordeste 0 -- -- 86
2017-12-13 08:00:00 10.9 11 Este 29 Sudeste 0.2 -- -- 93
2017-12-13 07:00:00 10.4 9 Este 40 Nordeste 0 -- -- 95
2017-12-13 06:00:00 10.2 14 Este 33 Sudeste 0 -- -- 97
2017-12-13 05:00:00 10.4 15 Este 34 Este 1.2 -- -- 97
2017-12-13 04:00:00 10.4 13 Este 36 Nordeste 0 -- -- 98
2017-12-13 03:00:00 10.3 19 Sudeste 39 Sudeste 1.6 -- -- 98
2017-12-13 02:00:00 10.8 13 Este 35 Este 0 -- -- 97
2017-12-13 01:00:00 11.1 16 Este 38 Sudeste 0 -- -- 95
2017-12-13 00:00:00 11.2 13 Sudeste 32 Este 0 -- -- 91
2017-12-12 23:00:00 10.9 10 Este 36 Este 0 -- -- 96
2017-12-12 22:00:00 11.5 12 Sudeste 35 Sudeste 0 -- -- 91
2017-12-12 21:00:00 11.2 10 Sudeste 30 Este 0 -- -- 90
2017-12-12 20:00:00 11.4 13 Sudeste 33 Este 0 -- -- 97
2017-12-12 19:00:00 11.3 10 Sudeste 31 Este 1.2 -- -- 97
2017-12-12 18:00:00 11.4 9 Sudeste 27 Este 0 -- -- 97
2017-12-12 17:00:00 12.2 6 Este 22 Sudeste 0 -- -- 95
2017-12-12 16:00:00 12.2 8 Sur 26 Sudeste 0 -- -- 97
2017-12-12 15:00:00 12.9 10 Sur 28 Este 0 -- -- 89
2017-12-12 14:00:00 13.1 9 Sudeste 27 Este 0 -- -- 86
2017-12-12 13:00:00 14.1 10 Sudeste 28 Sudeste 0 -- -- 80
2017-12-12 12:00:00 14.3 10 Sudeste 27 Este 0 -- -- 77
2017-12-12 11:00:00 13 10 Sudeste 31 Este 0 -- -- 75
2017-12-12 10:00:00 13.2 11 Sudeste 29 Nordeste 0 -- -- 76
2017-12-12 09:00:00 11.7 11 Este 28 Este 0 -- -- 75
2017-12-12 08:00:00 10.8 12 Este 37 Este 0 -- -- 76
2017-12-12 07:00:00 10.9 11 Este 36 Este 0 -- -- 88
2017-12-12 06:00:00 10.7 13 Sudeste 36 Nordeste 0 -- -- 92
2017-12-12 05:00:00 10.7 14 Este 34 Sudeste 0 -- -- 91
2017-12-12 04:00:00 11.3 12 Sudeste 36 Este 0 -- -- 97
2017-12-12 03:00:00 11.1 13 Sudeste 42 Este 0 -- -- 98
2017-12-12 02:00:00 11.1 12 Sudeste 39 Este 1 -- -- 99
2017-12-12 01:00:00 12 15 Sudeste 32 Este 0 -- -- 99
2017-12-12 00:00:00 12 8 Sur 27 Este 0 -- -- 98
2017-12-11 23:00:00 13.1 13 Sudoeste 28 Noroeste 0 -- -- 99
2017-12-11 22:00:00 12.8 11 Sudeste 37 Norte 1.2 -- -- 98
2017-12-11 21:00:00 12.6 8 Sudoeste 39 Norte 7 -- -- 98
2017-12-11 20:00:00 13.4 13 Norte 37 Nordeste 7.6 -- -- 94
2017-12-11 19:00:00 15.4 13 Norte 33 Norte 0 -- -- 80
2017-12-11 18:00:00 15.4 8 Norte 33 Norte 0 -- -- 80
2017-12-11 17:00:00 16.6 10 Norte 31 Norte 0 -- -- 71
2017-12-11 16:00:00 19.1 12 Noroeste 23 Noroeste 0 -- -- 59
2017-12-11 15:00:00 18.4 8 Noroeste 21 Noroeste 0 -- -- 62
2017-12-11 14:00:00 18.1 10 Norte 23 Norte 0 -- -- 67
2017-12-11 13:00:00 16.9 9 Norte 29 Nordeste 0 -- -- 71
2017-12-11 12:00:00 13.9 8 Norte 23 Noroeste 0 -- -- 90
2017-12-11 11:00:00 14.1 8 Norte 36 Noroeste 0 -- -- 92
2017-12-11 10:00:00 13.6 9 Nordeste 23 Nordeste 0 -- -- 96
2017-12-11 09:00:00 13.2 6 Norte 21 Noroeste 0 -- -- 97
2017-12-11 08:00:00 12.8 7 Norte 18 Noroeste 0 -- -- 95
2017-12-11 07:00:00 11.9 11 Noroeste 20 Noroeste 0 -- -- 94
2017-12-11 06:00:00 11.9 6 Norte 16 Norte 0 -- -- 92
2017-12-11 05:00:00 12.8 6 Norte 17 Norte 0 -- -- 95
2017-12-11 04:00:00 12.4 5 Norte 13 Norte 0 -- -- 95
2017-12-11 03:00:00 12.1 7 Norte 16 Norte 0 -- -- 93
2017-12-11 02:00:00 12.1 3 Este 12 Sur 0 -- -- 92
2017-12-11 01:00:00 12.8 5 Sudeste 10 Nordeste 0 -- -- 92
2017-12-11 00:00:00 13.1 4 Este 10 Sudoeste 0 -- -- 93
2017-12-10 23:00:00 13.3 3 Sur 13 Nordeste 0 -- -- 93
2017-12-10 22:00:00 12.8 4 Oeste 13 Sudoeste 0 -- -- 91
2017-12-10 21:00:00 12.9 4 Sur 11 Sudeste 0 -- -- 92
2017-12-10 20:00:00 13.6 5 Sudeste 13 Sudeste 0 -- -- 92
2017-12-10 19:00:00 13.9 5 Sudeste 13 Este 0 -- -- 91
2017-12-10 18:00:00 14 3 Sur 12 Este 0 -- -- 89
2017-12-10 17:00:00 14.7 4 Sudeste 13 Este 0 -- -- 85
2017-12-10 16:00:00 15.4 5 Norte 16 Norte 0 -- -- 79
2017-12-10 15:00:00 17.6 4 Sudoeste 12 Este 0 -- -- 71
2017-12-10 14:00:00 17.5 5 Noroeste 17 Norte 0 -- -- 71
2017-12-10 13:00:00 17 4 Norte 12 Este 0 -- -- 72
2017-12-10 12:00:00 16.8 7 Norte 13 Norte 0 -- -- 73
2017-12-10 11:00:00 15 4 Norte 10 Este 0 -- -- 74
2017-12-10 10:00:00 13.7 5 Norte 18 Norte 0 -- -- 83
2017-12-10 09:00:00 12.3 5 Norte 16 Norte 0 -- -- 96
2017-12-10 08:00:00 11.6 8 Norte 15 Norte 0 -- -- 97
2017-12-10 07:00:00 11.4 4 Noroeste 15 Norte 0 -- -- 95
2017-12-10 06:00:00 11 7 Sudoeste 14 Sudoeste 0 -- -- 91
2017-12-10 05:00:00 11.2 3 Sur 13 Sudoeste 0 -- -- 90
2017-12-10 04:00:00 11.8 0 Calma 8 Norte 0 -- -- 93
2017-12-10 03:00:00 11.9 0 Calma 10 Este 0 -- -- 93
2017-12-10 02:00:00 12.1 4 Sudeste 10 Sudeste 0 -- -- 92
2017-12-10 01:00:00 12.1 6 Sudeste 13 Este 0 -- -- 90
2017-12-10 00:00:00 12.5 6 Sudeste 14 Sudeste 0 -- -- 89
2017-12-09 23:00:00 12.3 3 Sur 12 Nordeste 0 -- -- 88
2017-12-09 22:00:00 12.2 5 Sudeste 13 Este 0 -- -- 87
2017-12-09 21:00:00 11.8 4 Sur 12 Sudeste 0 -- -- 86
2017-12-09 20:00:00 12 3 Noroeste 13 Noroeste 0 -- -- 88
2017-12-09 19:00:00 12.3 10 Noroeste 18 Noroeste 0 -- -- 78
2017-12-09 18:00:00 13.3 13 Noroeste 19 Noroeste 0 -- -- 80
2017-12-09 17:00:00 15 9 Noroeste 17 Norte 0 -- -- 75
2017-12-09 16:00:00 15.1 6 Norte 17 Norte 0 -- -- 73
2017-12-09 15:00:00 16.2 8 Norte 15 Norte 0 -- -- 69
2017-12-09 14:00:00 18.6 5 Sudeste 21 Sudeste 0 -- -- 58
2017-12-09 13:00:00 16.1 9 Sur 23 Sur 0 -- -- 62
2017-12-09 12:00:00 17.5 9 Sudeste 26 Sudeste 0 -- -- 56
2017-12-09 11:00:00 15 13 Sur 28 Sudeste 0 -- -- 62
2017-12-09 10:00:00 13.5 9 Sur 29 Sudeste 0 -- -- 63
2017-12-09 09:00:00 12.3 10 Sudeste 27 Sudeste 0 -- -- 60
2017-12-09 08:00:00 12.2 8 Sudeste 14 Sur 0 -- -- 40
2017-12-09 07:00:00 12.7 6 Sudoeste 12 Sudoeste 0 -- -- 24
2017-12-09 06:00:00 12.3 11 Oeste 17 Oeste 0 -- -- 39
2017-12-09 05:00:00 11.3 10 Noroeste 14 Noroeste 0 -- -- 60
2017-12-09 04:00:00 11.1 10 Norte 16 Norte 0 -- -- 70
2017-12-09 03:00:00 11.2 9 Norte 15 Sudeste 0 -- -- 79
2017-12-09 02:00:00 12.4 10 Sur 16 Sur 0 -- -- 39
2017-12-09 01:00:00 11.1 4 Sudeste 13 Sudeste 0 -- -- 84
2017-12-09 00:00:00 11.1 10 Sudeste 14 Sudeste 0 -- -- 68
2017-12-08 23:00:00 11.3 5 Noroeste 15 Noroeste 0 -- -- 84
2017-12-08 22:00:00 11.5 13 Noroeste 23 Norte 0 -- -- 88
2017-12-08 21:00:00 11.9 19 Noroeste 25 Noroeste 0 -- -- 88
2017-12-08 20:00:00 12 15 Noroeste 21 Norte 0 -- -- 87
2017-12-08 19:00:00 12.3 11 Noroeste 15 Noroeste 0 -- -- 82
2017-12-08 18:00:00 13.8 3 Noroeste 19 Sur 0 -- -- 67
2017-12-08 17:00:00 16 13 Sur 26 Sur 0 -- -- 61
2017-12-08 16:00:00 17.2 11 Sudeste 23 Sur 0 -- -- 59
2017-12-08 15:00:00 15.7 17 Sur 38 Sur 0 -- -- 65
2017-12-08 14:00:00 16.9 16 Sudoeste 31 Sudoeste 0 -- -- 58
2017-12-08 13:00:00 18.2 14 Sudeste 32 Sudeste 0 -- -- 53
2017-12-08 12:00:00 18.2 15 Sudeste 28 Sur 0 -- -- 51
2017-12-08 11:00:00 17.2 8 Sudeste 20 Sudoeste 0 -- -- 52
2017-12-08 10:00:00 14.1 14 Sur 41 Sudoeste 0 -- -- 61
2017-12-08 09:00:00 13.1 19 Sur 30 Sur 0 -- -- 59
2017-12-08 08:00:00 10.8 9 Sudoeste 12 Sudoeste 0 -- -- 47
2017-12-08 07:00:00 11 7 Sudoeste 29 Sudoeste 0 -- -- 50
2017-12-08 06:00:00 11.6 22 Sudoeste 44 Sur 0 -- -- 57
2017-12-08 05:00:00 12.3 34 Sur 59 Sudeste 0 -- -- 47
2017-12-08 04:00:00 12.6 28 Sur 54 Sudoeste 0 -- -- 40
2017-12-08 03:00:00 12 28 Sur 57 Sur 0 -- -- 48
2017-12-08 02:00:00 12 23 Sur 48 Sudeste 0 -- -- 43
2017-12-08 01:00:00 11.7 18 Sur 36 Sudeste 0 -- -- 53
2017-12-08 00:00:00 11.5 6 Sur 12 Sur 0 -- -- 62
2017-12-07 23:00:00 10.5 9 Norte 13 Norte 0 -- -- 84
2017-12-07 22:00:00 10.5 5 Norte 12 Norte 0 -- -- 86
2017-12-07 21:00:00 10.7 5 Norte 12 Noroeste 0 -- -- 82
2017-12-07 20:00:00 11.5 10 Noroeste 12 Noroeste 0 -- -- 77
2017-12-07 19:00:00 12.1 8 Noroeste 11 Noroeste 0 -- -- 72
2017-12-07 18:00:00 13.6 5 Sudoeste 14 Sur 0 -- -- 68
2017-12-07 17:00:00 16.2 7 Sur 15 Sur 0 -- -- 57
2017-12-07 16:00:00 16.3 6 Norte 14 Nordeste 0 -- -- 59
2017-12-07 15:00:00 17.2 5 Noroeste 33 Sudeste 0 -- -- 50
2017-12-07 14:00:00 16.4 23 Sur 41 Sur 0 -- -- 50
2017-12-07 13:00:00 16.5 22 Sur 40 Sur 0 -- -- 53
2017-12-07 12:00:00 15.6 25 Sur 50 Sur 0 -- -- 61
2017-12-07 11:00:00 15.7 13 Sur 33 Sudeste 0 -- -- 60
2017-12-07 10:00:00 13.4 29 Sur 44 Sur 0 -- -- 68
2017-12-07 09:00:00 11.6 17 Sur 33 Sur 0 -- -- 77
2017-12-07 08:00:00 11.2 19 Sur 31 Sudoeste 0 -- -- 77
2017-12-07 07:00:00 10.7 17 Sudoeste 22 Sudoeste 0 -- -- 70
2017-12-07 06:00:00 10.8 7 Sudoeste 15 Sudoeste 0 -- -- 66
2017-12-07 05:00:00 11.4 7 Sur 12 Sur 0 -- -- 72
2017-12-07 04:00:00 10.9 6 Sudoeste 11 Este 0 -- -- 65
2017-12-07 03:00:00 10.8 7 Sudeste 22 Sudoeste 0 -- -- 57
2017-12-07 02:00:00 11.9 17 Sudoeste 26 Sudoeste 0 -- -- 42
2017-12-07 01:00:00 11.6 8 Sudoeste 14 Sudeste 0 -- -- 61
2017-12-07 00:00:00 11.6 7 Sudoeste 17 Noroeste 0 -- -- 56
2017-12-06 23:00:00 12 8 Noroeste 13 Noroeste 0 -- -- 62
2017-12-06 22:00:00 11.7 12 Noroeste 16 Noroeste 0 -- -- 69
2017-12-06 21:00:00 11.6 10 Noroeste 15 Noroeste 0 -- -- 77
2017-12-06 20:00:00 11.7 11 Noroeste 14 Noroeste 0 -- -- 75
2017-12-06 19:00:00 12.2 14 Noroeste 20 Noroeste 0 -- -- 72
2017-12-06 18:00:00 13.5 11 Sudoeste 32 Sudoeste 0 -- -- 66
2017-12-06 17:00:00 14.6 22 Sudoeste 36 Sudoeste 0 -- -- 63
2017-12-06 16:00:00 15.3 25 Sudoeste 45 Sudoeste 0 -- -- 60
2017-12-06 15:00:00 16.7 22 Sur 37 Sudoeste 0 -- -- 52
2017-12-06 14:00:00 16 22 Sudoeste 45 Sudoeste 0 -- -- 53
2017-12-06 13:00:00 16.1 23 Sudoeste 37 Sudoeste 0 -- -- 53
2017-12-06 12:00:00 16.2 22 Sur 59 Sur 0 -- -- 50
2017-12-06 11:00:00 14.7 37 Sur 68 Sudeste 0 -- -- 54
2017-12-06 10:00:00 14 34 Sur 60 Sur 0 -- -- 59
2017-12-06 09:00:00 13.3 27 Sur 49 Sur 0 -- -- 57
2017-12-06 08:00:00 12.2 25 Sudoeste 59 Sur 0 -- -- 61
2017-12-06 07:00:00 12.3 33 Sur 53 Sur 0 -- -- 67
2017-12-06 06:00:00 12.1 22 Sur 50 Sur 0 -- -- 70
2017-12-06 05:00:00 12.6 35 Sur 52 Sur 0 -- -- 62
2017-12-06 04:00:00 13 29 Sur 54 Sur 0 -- -- 48
2017-12-06 03:00:00 13.2 26 Sur 57 Sur 0 -- -- 40
2017-12-06 02:00:00 13.3 25 Sudoeste 48 Sur 0 -- -- 47
2017-12-06 01:00:00 13.5 24 Sudoeste 40 Sur 0 -- -- 39
2017-12-06 00:00:00 13.3 22 Sur 41 Sudoeste 0 -- -- 54
2017-12-05 23:00:00 12.6 17 Sudoeste 26 Sur 0 -- -- 59
2017-12-05 22:00:00 12.9 14 Sur 25 Sudeste 0 -- -- 53
2017-12-05 21:00:00 13 6 Sudoeste 11 Sudoeste 0 -- -- 67
2017-12-05 20:00:00 13.7 3 Sudoeste 8 Norte 0 -- -- 66
2017-12-05 19:00:00 14.4 4 Noroeste 6 Noroeste 0 -- -- 61
2017-12-05 18:00:00 17 0 Calma 8 Sur 0 -- -- 49
2017-12-05 17:00:00 19.2 6 Sur 17 Sur 0 -- -- 48
2017-12-05 16:00:00 20.8 10 Sudeste 24 Sudeste 0 -- -- 39
2017-12-05 15:00:00 19.6 15 Sur 32 Sudeste 0 -- -- 42
2017-12-05 14:00:00 20.7 14 Sur 36 Sudeste 0 -- -- 40
2017-12-05 13:00:00 19.6 19 Sur 45 Sudeste 0 -- -- 42
2017-12-05 12:00:00 17.7 25 Sur 57 Sur 0 -- -- 46
2017-12-05 11:00:00 16.8 32 Sur 53 Sur 0 -- -- 51
2017-12-05 10:00:00 15.9 31 Sur 51 Sur 0 -- -- 56
2017-12-05 09:00:00 15.1 26 Sur 57 Sur 0 -- -- 61
2017-12-05 08:00:00 14.5 27 Sur 52 Sur 0 -- -- 56
2017-12-05 07:00:00 14.6 30 Sur 51 Sudeste 0 -- -- 52
2017-12-05 06:00:00 14.8 29 Sur 49 Sudeste 0 -- -- 45
2017-12-05 05:00:00 15.1 32 Sur 49 Sur 0 -- -- 43
2017-12-05 04:00:00 12.4 21 Sudeste 33 Sudeste 0 -- -- 89
2017-12-05 03:00:00 13.4 5 Nordeste 11 Nordeste 0 -- -- 98
2017-12-05 02:00:00 13.3 4 Norte 12 Nordeste 0 -- -- 98
2017-12-05 01:00:00 13.4 5 Este 12 Este 0 -- -- 98
2017-12-05 00:00:00 13.4 6 Este 13 Nordeste 0 -- -- 98
2017-12-04 23:00:00 13.4 3 Nordeste 12 Este 0 -- -- 97
2017-12-04 22:00:00 13.5 3 Nordeste 10 Nordeste 0 -- -- 96
2017-12-04 21:00:00 13.6 4 Este 10 Norte 0 -- -- 96
2017-12-04 20:00:00 13.5 7 Este 12 Este 0 -- -- 96
2017-12-04 19:00:00 13.2 5 Este 11 Nordeste 0 -- -- 94
2017-12-04 18:00:00 13.9 3 Norte 8 Norte 0 -- -- 89
2017-12-04 17:00:00 14.3 2 Este 14 Norte 0 -- -- 88
2017-12-04 16:00:00 14.5 4 Sudeste 9 Sudeste 0 -- -- 87
2017-12-04 15:00:00 14.5 5 Norte 13 Noroeste 0 -- -- 86
2017-12-04 14:00:00 15.3 4 Sur 12 Este 0 -- -- 81
2017-12-04 13:00:00 15.1 3 Este 14 Nordeste 0 -- -- 81
2017-12-04 12:00:00 14.4 4 Norte 13 Nordeste 0 -- -- 82
2017-12-04 11:00:00 13.9 4 Norte 14 Este 0 -- -- 86
2017-12-04 10:00:00 13.5 3 Sur 13 Este 0 -- -- 86
2017-12-04 09:00:00 12.9 3 Este 10 Oeste 0 -- -- 89
2017-12-04 08:00:00 12.6 3 Sur 16 Nordeste 0 -- -- 91
2017-12-04 07:00:00 12.6 4 Sur 11 Este 0 -- -- 92
2017-12-04 06:00:00 12.5 5 Sudeste 15 Este 0 -- -- 93
2017-12-04 05:00:00 12.7 6 Sudeste 19 Este 0 -- -- 94
2017-12-04 04:00:00 13 4 Sur 19 Este 0 -- -- 94
2017-12-04 03:00:00 13 4 Sur 11 Nordeste 0 -- -- 88
2017-12-04 02:00:00 13.1 4 Sudeste 15 Nordeste 0 -- -- 88
2017-12-04 01:00:00 13.2 5 Este 20 Este 0 -- -- 90
2017-12-04 00:00:00 13.2 6 Este 19 Este 0 -- -- 93
2017-12-03 23:00:00 13.5 5 Este 17 Este 0 -- -- 96
2017-12-03 22:00:00 13.6 5 Este 17 Este 0 -- -- 97
2017-12-03 21:00:00 13.8 4 Sudeste 18 Nordeste 0 -- -- 97
2017-12-03 20:00:00 14 5 Sur 15 Este 0 -- -- 95
2017-12-03 19:00:00 14 3 Sudeste 8 Sudeste 0 -- -- 92
2017-12-03 18:00:00 14 4 Este 12 Nordeste 0 -- -- 92
2017-12-03 17:00:00 14.3 3 Sur 12 Sudeste 0 -- -- 92
2017-12-03 16:00:00 15 4 Sur 15 Este 0 -- -- 93
2017-12-03 15:00:00 15.8 3 Sudoeste 10 Nordeste 0 -- -- 88
2017-12-03 14:00:00 15.7 4 Nordeste 11 Sudeste 0 -- -- 89
2017-12-03 13:00:00 15.2 3 Este 12 Nordeste 0 -- -- 97
2017-12-03 12:00:00 15.1 3 Sudeste 10 Nordeste 0 -- -- 97
2017-12-03 11:00:00 15.2 3 Sudeste 9 Sudeste 0 -- -- 97
2017-12-03 10:00:00 15.3 3 Norte 10 Norte 0 -- -- 97
2017-12-03 09:00:00 15.2 5 Norte 11 Noroeste 0 -- -- 97
2017-12-03 08:00:00 15 5 Norte 11 Nordeste 0 -- -- 97
2017-12-03 07:00:00 15 3 Norte 12 Noroeste 0 -- -- 96
2017-12-03 06:00:00 14.7 10 Norte 13 Norte 0 -- -- 96
2017-12-03 05:00:00 15.2 4 Norte 10 Noroeste 0 -- -- 96
2017-12-03 04:00:00 15 8 Norte 10 Noroeste 0 -- -- 95
2017-12-03 03:00:00 14.9 4 Oeste 11 Sudoeste 0 -- -- 93
2017-12-03 02:00:00 14.9 4 Sudoeste 9 Sudoeste 0 -- -- 93
2017-12-03 01:00:00 15.2 2 Sudeste 5 Nordeste 0 -- -- 93
2017-12-03 00:00:00 15.1 3 Sudoeste 10 Sudoeste 0 -- -- 91
2017-12-02 23:00:00 14.6 8 Sudoeste 10 Sudoeste 0 -- -- 92
2017-12-02 22:00:00 15.1 0 Calma 5 Oeste 0 -- -- 92
2017-12-02 21:00:00 15.4 3 Oeste 7 Norte 0 -- -- 92
2017-12-02 20:00:00 15.4 3 Norte 7 Norte 0 -- -- 92
2017-12-02 19:00:00 15.9 3 Oeste 6 Norte 0 -- -- 91
2017-12-02 18:00:00 17 5 Norte 10 Norte 0 -- -- 86
2017-12-02 17:00:00 17.9 0 Calma 9 Sudeste 0 -- -- 79
2017-12-02 16:00:00 18.3 4 Sur 11 Sur 0 -- -- 80
2017-12-02 15:00:00 17.4 4 Sur 13 Sudeste 0 -- -- 85
2017-12-02 14:00:00 18.1 4 Sudeste 10 Sudeste 0 -- -- 88
2017-12-02 13:00:00 17.2 5 Este 12 Este 0 -- -- 88
2017-12-02 12:00:00 17.2 4 Sudeste 9 Sudeste 0 -- -- 89
2017-12-02 11:00:00 17.3 2 Noroeste 6 Nordeste 0 -- -- 85
2017-12-02 10:00:00 17.5 3 Norte 7 Norte 0 -- -- 84
2017-12-02 09:00:00 16.1 3 Oeste 5 Norte 0 -- -- 96
2017-12-02 08:00:00 15 4 Norte 8 Norte 0 -- -- 96
2017-12-02 07:00:00 15.1 4 Noroeste 9 Noroeste 0 -- -- 96
2017-12-02 06:00:00 15.2 5 Noroeste 9 Norte 0 -- -- 96
2017-12-02 05:00:00 14.8 6 Norte 10 Noroeste 0 -- -- 95
2017-12-02 04:00:00 14.7 9 Noroeste 12 Noroeste 0 -- -- 95
2017-12-02 03:00:00 15 5 Norte 10 Norte 0 -- -- 93
2017-12-02 02:00:00 15.5 5 Noroeste 10 Noroeste 0 -- -- 92
2017-12-02 01:00:00 15.7 8 Noroeste 11 Noroeste 0 -- -- 89
2017-12-02 00:00:00 15.4 4 Norte 9 Noroeste 0 -- -- 87
2017-12-01 23:00:00 15.8 3 Norte 8 Sudoeste 0 -- -- 86
2017-12-01 22:00:00 15.9 2 Sur 10 Sudoeste 0 -- -- 86
2017-12-01 21:00:00 15.7 7 Sudoeste 9 Sudoeste 0 -- -- 87
2017-12-01 20:00:00 15.8 4 Sudoeste 9 Sudoeste 0 -- -- 90
2017-12-01 19:00:00 16.9 3 Noroeste 6 Noroeste 0 -- -- 89
2017-12-01 18:00:00 17.6 4 Noroeste 9 Sudeste 0 -- -- 87
2017-12-01 17:00:00 18.6 5 Sur 9 Sudeste 0 -- -- 84
2017-12-01 16:00:00 19.3 3 Norte 8 Norte 0 -- -- 81
2017-12-01 15:00:00 20.1 3 Este 10 Sudeste 0 -- -- 74
2017-12-01 14:00:00 21.1 3 Este 14 Sudeste 0 -- -- 69
2017-12-01 13:00:00 22.4 6 Sur 15 Sur 0 -- -- 64
2017-12-01 12:00:00 20.9 7 Sudeste 15 Sudeste 0 -- -- 70
2017-12-01 11:00:00 19.5 3 Nordeste 9 Sudeste 0 -- -- 72
2017-12-01 10:00:00 18.2 4 Nordeste 13 Noroeste 0 -- -- 77
2017-12-01 09:00:00 17 6 Noroeste 20 Noroeste 0 -- -- 81
2017-12-01 08:00:00 15.8 14 Noroeste 19 Noroeste 0 -- -- 85
2017-12-01 07:00:00 14.8 7 Noroeste 8 Norte 0 -- -- 88
2017-12-01 06:00:00 14.7 3 Sudoeste 6 Sudoeste 0 -- -- 87
2017-12-01 05:00:00 14.7 0 Calma 6 Sudoeste 0 -- -- 86
2017-12-01 04:00:00 14.8 6 Sudoeste 10 Sur 0 -- -- 86
2017-12-01 03:00:00 15 4 Noroeste 12 Sudoeste 0 -- -- 87
2017-12-01 02:00:00 15 8 Sudoeste 10 Sudoeste 0 -- -- 83
2017-12-01 01:00:00 15.3 8 Sudoeste 13 Sudoeste 0 -- -- 84
2017-12-01 00:00:00 15.4 5 Sudoeste 8 Sudoeste 0 -- -- 84
2017-11-30 23:00:00 15.3 3 Noroeste 6 Sudoeste 0 -- -- 87
2017-11-30 22:00:00 15.7 3 Noroeste 6 Norte 0 -- -- 90
2017-11-30 21:00:00 15.5 2 Sudoeste 8 Sudoeste 0 -- -- 92
2017-11-30 20:00:00 16 5 Sudoeste 10 Sudoeste 0 -- -- 95
2017-11-30 19:00:00 16.4 5 Sudoeste 6 Sudoeste 0 -- -- 92
2017-11-30 18:00:00 17.5 3 Sudeste 5 Sudeste 0 -- -- 90
2017-11-30 17:00:00 17.8 3 Sudeste 7 Sudeste 0 -- -- 89
2017-11-30 16:00:00 18.1 3 Sudeste 6 Sudeste 0 -- -- 88
2017-11-30 15:00:00 18.4 3 Sudeste 7 Norte 0 -- -- 86
2017-11-30 14:00:00 18.5 3 Nordeste 6 Norte 0 -- -- 85
2017-11-30 13:00:00 18.8 2 Nordeste 10 Sudeste 0 -- -- 82
2017-11-30 12:00:00 19.5 7 Sudeste 16 Norte 0 -- -- 78
2017-11-30 11:00:00 18.9 8 Norte 15 Noroeste 0 -- -- 80
2017-11-30 10:00:00 18.1 9 Oeste 25 Noroeste 0 -- -- 80
2017-11-30 09:00:00 16.8 14 Noroeste 27 Noroeste 0 -- -- 83
2017-11-30 08:00:00 16.1 17 Noroeste 38 Noroeste 0 -- -- 81
2017-11-30 07:00:00 16 30 Noroeste 37 Oeste 0 -- -- 85
2017-11-30 06:00:00 16 25 Noroeste 33 Noroeste 0 -- -- 83
2017-11-30 05:00:00 15.9 18 Noroeste 27 Noroeste 0 -- -- 82
2017-11-30 04:00:00 15.9 5 Sudeste 14 Sur 0 -- -- 76
2017-11-30 03:00:00 16.2 9 Oeste 31 Noroeste 0 -- -- 77
2017-11-30 02:00:00 16.3 11 Oeste 31 Noroeste 0 -- -- 76
2017-11-30 01:00:00 16.6 21 Noroeste 31 Noroeste 0 -- -- 73
2017-11-30 00:00:00 16.4 15 Noroeste 27 Noroeste 0 -- -- 75
2017-11-29 23:00:00 16.9 19 Noroeste 28 Noroeste 0 -- -- 78
2017-11-29 22:00:00 16.8 19 Noroeste 25 Noroeste 0 -- -- 78
2017-11-29 21:00:00 16.8 11 Noroeste 21 Noroeste 0 -- -- 78
2017-11-29 20:00:00 17.1 13 Noroeste 28 Noroeste 0 -- -- 78
2017-11-29 19:00:00 17.4 10 Noroeste 21 Noroeste 0 -- -- 74
2017-11-29 18:00:00 18.1 13 Oeste 30 Noroeste 0 -- -- 70
2017-11-29 17:00:00 19.7 17 Noroeste 26 Oeste 0 -- -- 65
2017-11-29 16:00:00 21.5 10 Noroeste 22 Noroeste 0 -- -- 59
2017-11-29 15:00:00 24 5 Norte 19 Noroeste 0 -- -- 51
2017-11-29 14:00:00 22.9 8 Noroeste 22 Noroeste 0 -- -- 52
2017-11-29 13:00:00 22.8 8 Noroeste 18 Noroeste 0 -- -- 48
2017-11-29 12:00:00 23.4 4 Norte 18 Noroeste 0 -- -- 49
2017-11-29 11:00:00 22.1 6 Noroeste 22 Noroeste 0 -- -- 50
2017-11-29 10:00:00 20.8 8 Noroeste 23 Oeste 0 -- -- 53
2017-11-29 09:00:00 18.3 12 Noroeste 18 Noroeste 0 -- -- 60
2017-11-29 08:00:00 17.4 9 Oeste 16 Noroeste 0 -- -- 63
2017-11-29 07:00:00 17.4 11 Oeste 19 Sudoeste 0 -- -- 62
2017-11-29 06:00:00 16.8 5 Sudoeste 21 Oeste 0 -- -- 67
2017-11-29 05:00:00 17.3 12 Sudoeste 19 Sudoeste 0 -- -- 64
2017-11-29 04:00:00 15.6 3 Nordeste 9 Sudeste 0 -- -- 86
2017-11-29 03:00:00 15.7 6 Sur 20 Oeste 0 -- -- 80
2017-11-29 02:00:00 16.1 7 Norte 16 Oeste 0 -- -- 74
2017-11-29 01:00:00 16.2 5 Norte 8 Norte 0 -- -- 79
2017-11-29 00:00:00 17.1 4 Sudeste 18 Oeste 0 -- -- 73
2017-11-28 23:00:00 17.2 7 Sudoeste 18 Oeste 0 -- -- 60
2017-11-28 22:00:00 18 9 Oeste 14 Oeste 0 -- -- 54
2017-11-28 21:00:00 18 5 Oeste 16 Oeste 0 -- -- 57
2017-11-28 20:00:00 18.3 4 Sudoeste 9 Sudoeste 0 -- -- 59
2017-11-28 19:00:00 17.9 4 Noroeste 12 Norte 0 -- -- 70
2017-11-28 18:00:00 19.2 5 Norte 9 Norte 0 -- -- 71
2017-11-28 17:00:00 20.9 4 Norte 10 Este 0 -- -- 62
2017-11-28 16:00:00 22 4 Sudoeste 10 Sudeste 0 -- -- 56
2017-11-28 15:00:00 23.9 5 Sur 13 Sudeste 0 -- -- 51
2017-11-28 14:00:00 23.5 4 Sur 13 Sudeste 0 -- -- 51
2017-11-28 13:00:00 23.6 3 Sudeste 15 Sudeste 0 -- -- 49
2017-11-28 12:00:00 22.8 2 Este 10 Sudeste 0 -- -- 48
2017-11-28 11:00:00 22.3 3 Sudeste 12 Noroeste 0 -- -- 46
2017-11-28 10:00:00 21.5 6 Noroeste 15 Noroeste 0 -- -- 50
2017-11-28 09:00:00 19.8 9 Noroeste 16 Oeste 0 -- -- 56
2017-11-28 08:00:00 19.2 5 Sudoeste 15 Oeste 0 -- -- 57
2017-11-28 07:00:00 19.1 9 Oeste 16 Noroeste 0 -- -- 54
2017-11-28 06:00:00 19.5 5 Sudoeste 13 Oeste 0 -- -- 41
2017-11-28 05:00:00 19.3 7 Oeste 10 Noroeste 0 -- -- 33
2017-11-28 04:00:00 18.4 6 Noroeste 10 Norte 0 -- -- 39
2017-11-28 03:00:00 18.2 3 Oeste 7 Sudeste 0 -- -- 37
2017-11-28 02:00:00 19.3 4 Sudoeste 10 Sudoeste 0 -- -- 31
2017-11-28 01:00:00 19.1 5 Sur 8 Sudoeste 0 -- -- 33
2017-11-28 00:00:00 19.1 3 Sur 11 Noroeste 0 -- -- 33
2017-11-27 23:00:00 19.9 7 Oeste 12 Oeste 0 -- -- 32
2017-11-27 22:00:00 19.2 7 Sudoeste 12 Sur 0 -- -- 38
2017-11-27 21:00:00 19 9 Sudoeste 12 Sudoeste 0 -- -- 43
2017-11-27 20:00:00 19.8 7 Sudoeste 13 Oeste 0 -- -- 38
2017-11-27 19:00:00 20.8 8 Sudoeste 16 Oeste 0 -- -- 35
2017-11-27 18:00:00 22.8 10 Oeste 21 Oeste 0 -- -- 30
2017-11-27 17:00:00 25.1 4 Sur 21 Sudoeste 0 -- -- 34
2017-11-27 16:00:00 26 10 Sur 20 Sur 0 -- -- 34
2017-11-27 15:00:00 27.5 4 Sur 19 Sudeste 0 -- -- 31
2017-11-27 14:00:00 27.2 4 Este 24 Sudeste 0 -- -- 26
2017-11-27 13:00:00 26.9 11 Oeste 35 Sudoeste 0 -- -- 23
2017-11-27 12:00:00 26.2 14 Sudeste 27 Sur 0 -- -- 29
2017-11-27 11:00:00 23.3 11 Sur 38 Sudoeste 0 -- -- 32
2017-11-27 10:00:00 22.8 23 Sudoeste 42 Sudoeste 0 -- -- 32
2017-11-27 09:00:00 21.6 29 Sudoeste 43 Sudoeste 0 -- -- 33
2017-11-27 08:00:00 20.9 32 Sudoeste 48 Sudoeste 0 -- -- 36
2017-11-27 07:00:00 20.5 30 Sudoeste 46 Sudoeste 0 -- -- 47
2017-11-27 06:00:00 19.9 27 Sudoeste 40 Sudoeste 0 -- -- 57
2017-11-27 05:00:00 19.9 21 Sudoeste 37 Sudoeste 0 -- -- 58
2017-11-27 04:00:00 19.9 26 Sudoeste 37 Sudoeste 0 -- -- 61
2017-11-27 03:00:00 19.8 24 Sudoeste 33 Sudoeste 0 -- -- 61
2017-11-27 02:00:00 19.9 20 Sudoeste 36 Sudoeste 0 -- -- 61
2017-11-27 01:00:00 19.5 13 Sudoeste 33 Sudoeste 0 -- -- 69
2017-11-27 00:00:00 19.2 18 Sudoeste 32 Sudoeste 0 -- -- 74
2017-11-26 23:00:00 18.7 19 Sur 31 Sudoeste 0 -- -- 80
2017-11-26 22:00:00 17.9 16 Sur 24 Sudeste 0 -- -- 88
2017-11-26 21:00:00 18.8 12 Sudoeste 27 Sudoeste 0 -- -- 82
2017-11-26 20:00:00 18.8 15 Sudoeste 28 Sudoeste 0 -- -- 83
2017-11-26 19:00:00 19.1 17 Oeste 28 Sudoeste 0 -- -- 81
2017-11-26 18:00:00 19.3 18 Sudoeste 37 Sudoeste 0 -- -- 80
2017-11-26 17:00:00 19.5 16 Sur 42 Sudoeste 0 -- -- 80
2017-11-26 16:00:00 19.5 23 Sudoeste 37 Sudoeste 0 -- -- 81
2017-11-26 15:00:00 19.2 18 Sur 42 Sudoeste 0 -- -- 85
2017-11-26 14:00:00 19.5 18 Sur 46 Sur 0 -- -- 87
2017-11-26 13:00:00 19.4 30 Sur 50 Sudoeste 0 -- -- 85
2017-11-26 12:00:00 18 28 Sur 57 Sudoeste 0 -- -- 92
2017-11-26 11:00:00 19 36 Sur 62 Sudoeste 0 -- -- 85
2017-11-26 10:00:00 18 34 Sur 61 Sur 0 -- -- 91
2017-11-26 09:00:00 17.7 33 Sur 55 Sudoeste 0 -- -- 91
2017-11-26 08:00:00 17.4 32 Sur 50 Oeste 0 -- -- 93
2017-11-26 07:00:00 17.5 28 Sur 45 Sur 0 -- -- 90
2017-11-26 06:00:00 17.1 25 Sur 49 Sudoeste 0 -- -- 93
2017-11-26 05:00:00 17.6 19 Sur 51 Sudoeste 0 -- -- 87
2017-11-26 04:00:00 18.4 28 Sudoeste 49 Sudoeste 0 -- -- 80
2017-11-26 03:00:00 18.3 14 Sudoeste 51 Sur 0 -- -- 79
2017-11-26 02:00:00 18.5 35 Sudoeste 63 Sudoeste 0 -- -- 68
2017-11-26 01:00:00 19.4 44 Sudoeste 62 Sudoeste 0 -- -- 51
2017-11-26 00:00:00 19.8 44 Sudoeste 66 Sudoeste 0 -- -- 50
2017-11-25 23:00:00 19.2 31 Sudoeste 56 Sudoeste 0 -- -- 44
2017-11-25 22:00:00 19.6 36 Sudoeste 57 Sudoeste 0 -- -- 41
2017-11-25 21:00:00 18.8 39 Sudoeste 66 Sudoeste 0 -- -- 45
2017-11-25 20:00:00 18.9 44 Sudoeste 67 Sudoeste 0 -- -- 49
2017-11-25 19:00:00 18.1 47 Sudoeste 68 Sudoeste 0 -- -- 39
2017-11-25 18:00:00 18 34 Sudoeste 55 Sudoeste 0 -- -- 44
2017-11-25 17:00:00 19.7 26 Sur 61 Sudoeste 0 -- -- 47
2017-11-25 16:00:00 19.8 27 Sudoeste 55 Sudoeste 0 -- -- 49
2017-11-25 15:00:00 18.7 36 Sudoeste 61 Sudoeste 0 -- -- 53
2017-11-25 14:00:00 19.4 14 Sur 28 Sur 0 -- -- 59
2017-11-25 13:00:00 20 15 Sur 41 Sudoeste 0 -- -- 55
2017-11-25 12:00:00 18.9 21 Sur 33 Sudeste 0 -- -- 65
2017-11-25 11:00:00 18.6 16 Sur 33 Sur 0 -- -- 72
2017-11-25 10:00:00 17.7 13 Sur 26 Sur 0 -- -- 70
2017-11-25 09:00:00 17.5 15 Sudoeste 33 Sudoeste 0 -- -- 69
2017-11-25 08:00:00 17.2 23 Sudoeste 40 Sudoeste 0 -- -- 59
2017-11-25 07:00:00 18.1 21 Sudoeste 47 Sudoeste 0 -- -- 46
2017-11-25 06:00:00 20.1 31 Sudoeste 56 Sudoeste 0 -- -- 30
2017-11-25 05:00:00 20.2 35 Sudoeste 57 Sudoeste 0 -- -- 21
2017-11-25 04:00:00 21.3 36 Sudoeste 61 Sudoeste 0 -- -- 22
2017-11-25 03:00:00 21 44 Sudoeste 68 Sudoeste 0 -- -- 32
2017-11-25 02:00:00 20.4 34 Sudoeste 55 Sudoeste 0 -- -- 30
2017-11-25 01:00:00 20.3 23 Sudoeste 52 Sudoeste 0 -- -- 38
2017-11-25 00:00:00 20.2 27 Sudoeste 40 Sudoeste 0 -- -- 46
2017-11-24 23:00:00 19.9 8 Oeste 33 Sudoeste 0 -- -- 45
2017-11-24 22:00:00 19.7 10 Oeste 22 Oeste 0 -- -- 47
2017-11-24 21:00:00 19.4 8 Oeste 21 Oeste 0 -- -- 51
2017-11-24 20:00:00 19.4 14 Sur 37 Sudoeste 0 -- -- 55
2017-11-24 19:00:00 19.6 18 Sudoeste 37 Sudoeste 0 -- -- 60
2017-11-24 18:00:00 20.5 19 Sudoeste 45 Sudoeste 0 -- -- 60
2017-11-24 17:00:00 20.5 23 Sudoeste 41 Sudoeste 0 -- -- 55
2017-11-24 16:00:00 22.2 24 Sudoeste 44 Sudoeste 0 -- -- 53
2017-11-24 15:00:00 24.2 19 Sudeste 38 Sudeste 0 -- -- 48
2017-11-24 14:00:00 22.9 18 Sur 32 Sur 0 -- -- 55
2017-11-24 13:00:00 22.2 14 Sudeste 46 Sur 0 -- -- 64
2017-11-24 12:00:00 17.9 24 Sur 40 Sur 0 -- -- 82
2017-11-24 11:00:00 18.6 19 Sur 32 Este 0 -- -- 71
2017-11-24 10:00:00 18.1 15 Sur 25 Sudeste 0 -- -- 71
2017-11-24 09:00:00 17.3 3 Nordeste 10 Noroeste 0 -- -- 69
2017-11-24 08:00:00 16.2 3 Este 12 Sudoeste 0 -- -- 73
2017-11-24 07:00:00 16.3 4 Nordeste 11 Nordeste 0 -- -- 71
2017-11-24 06:00:00 16.2 6 Este 13 Noroeste 0 -- -- 72
2017-11-24 05:00:00 15.8 0 Calma 11 Sudeste 0 -- -- 73
2017-11-24 04:00:00 15.7 5 Sudoeste 19 Oeste 0 -- -- 72
2017-11-24 03:00:00 16.2 11 Oeste 20 Oeste 0 -- -- 70
2017-11-24 02:00:00 16.5 10 Oeste 25 Oeste 0 -- -- 70
2017-11-24 01:00:00 16.4 15 Oeste 23 Oeste 0 -- -- 68
2017-11-24 00:00:00 16.4 17 Oeste 25 Oeste 0 -- -- 66
2017-11-23 23:00:00 16.2 13 Noroeste 23 Noroeste 0 -- -- 66
2017-11-23 22:00:00 16 4 Sur 14 Sudoeste 0 -- -- 67
2017-11-23 21:00:00 16.8 8 Oeste 18 Oeste 0 -- -- 72
2017-11-23 20:00:00 16.9 8 Oeste 15 Noroeste 0 -- -- 78
2017-11-23 19:00:00 17.2 2 Norte 7 Norte 0 -- -- 72
2017-11-23 18:00:00 17.7 0 Calma 10 Sudeste 0 -- -- 65
2017-11-23 17:00:00 19.2 5 Sudeste 13 Sudeste 0 -- -- 57
2017-11-23 16:00:00 21.1 5 Sur 17 Sudeste 0 -- -- 47
2017-11-23 15:00:00 23 5 Sur 17 Sudeste 0 -- -- 32
2017-11-23 14:00:00 23.6 10 Sur 19 Sur 0 -- -- 31
2017-11-23 13:00:00 22.9 10 Sur 18 Sur 0 -- -- 37
2017-11-23 12:00:00 23.4 5 Sur 13 Norte 0 -- -- 23
2017-11-23 11:00:00 22.4 4 Este 10 Sudoeste 0 -- -- 20
2017-11-23 10:00:00 20.8 3 Este 9 Sudeste 0 -- -- 19
2017-11-23 09:00:00 17.6 6 Sudoeste 18 Sudoeste 0 -- -- 21
2017-11-23 08:00:00 15.6 11 Sudoeste 22 Sudoeste 0 -- -- 22
2017-11-23 07:00:00 15.5 19 Sudoeste 24 Sudoeste 0 -- -- 22
2017-11-23 06:00:00 15.7 13 Sudoeste 18 Sudoeste 0 -- -- 21
2017-11-23 05:00:00 15.9 9 Sudoeste 12 Sur 0 -- -- 21
2017-11-23 04:00:00 16.3 8 Sudoeste 13 Sudoeste 0 -- -- 20
2017-11-23 03:00:00 16.1 12 Sudoeste 17 Sudoeste 0 -- -- 20
2017-11-23 02:00:00 15.9 13 Sudoeste 18 Sudoeste 0 -- -- 20
2017-11-23 01:00:00 15.6 10 Sudoeste 14 Sudoeste 0 -- -- 26
2017-11-23 00:00:00 16 6 Sudoeste 11 Sudoeste 0 -- -- 46
2017-11-22 23:00:00 15.4 10 Sudoeste 14 Sudoeste 0 -- -- 52
2017-11-22 22:00:00 15.4 6 Sudoeste 10 Sudoeste 0 -- -- 53
2017-11-22 21:00:00 15.8 8 Sudoeste 12 Sudoeste 0 -- -- 48
2017-11-22 20:00:00 16 8 Sur 14 Sudoeste 0 -- -- 41
2017-11-22 19:00:00 16.2 10 Sudoeste 14 Sudoeste 0 -- -- 40
2017-11-22 18:00:00 18.6 8 Sur 13 Sudeste 0 -- -- 34
2017-11-22 17:00:00 21.6 8 Sur 15 Sur 0 -- -- 27
2017-11-22 16:00:00 23.3 8 Sur 16 Sur 0 -- -- 22
2017-11-22 15:00:00 24.2 9 Sur 18 Sudeste 0 -- -- 21
2017-11-22 14:00:00 24.7 7 Sur 19 Sudeste 0 -- -- 24
2017-11-22 13:00:00 24.3 10 Sudeste 19 Sur 0 -- -- 18
2017-11-22 12:00:00 23.9 8 Sudeste 15 Sur 0 -- -- 16
2017-11-22 11:00:00 23.3 8 Sur 17 Sur 0 -- -- 20
2017-11-22 10:00:00 21.1 7 Sudeste 17 Sudeste 0 -- -- 17
2017-11-22 09:00:00 19.2 9 Sudeste 17 Sudeste 0 -- -- 19
2017-11-22 08:00:00 17.5 14 Sudoeste 36 Sudoeste 0 -- -- 18
2017-11-22 07:00:00 17.3 27 Sudoeste 42 Sudoeste 0 -- -- 19
2017-11-22 06:00:00 17.6 21 Sudoeste 36 Sudoeste 0 -- -- 19
2017-11-22 05:00:00 17.3 10 Oeste 33 Sudoeste 0 -- -- 17
2017-11-22 04:00:00 17.6 16 Sur 24 Sur 0 -- -- 16
2017-11-22 03:00:00 17.6 14 Oeste 39 Sudoeste 0 -- -- 17
2017-11-22 02:00:00 17.8 18 Sur 41 Sudoeste 0 -- -- 16
2017-11-22 01:00:00 18.3 31 Sudoeste 50 Sur 0 -- -- 17
2017-11-22 00:00:00 18.3 32 Sur 68 Sudoeste 0 -- -- 18
2017-11-21 23:00:00 18.5 48 Sudoeste 68 Sudoeste 0 -- -- 18
2017-11-21 22:00:00 18.2 27 Sudoeste 45 Sudoeste 0 -- -- 19
2017-11-21 21:00:00 18 13 Sur 35 Sudeste 0 -- -- 21
2017-11-21 20:00:00 17.9 14 Sudoeste 68 Sudoeste 0 -- -- 21
2017-11-21 19:00:00 18.4 41 Sudoeste 67 Sudoeste 0 -- -- 22
2017-11-21 18:00:00 17.8 14 Sudoeste 55 Sur 0 -- -- 25
2017-11-21 17:00:00 16.8 18 Sur 37 Sur 0 -- -- 57
2017-11-21 16:00:00 17.5 11 Sudeste 44 Sudeste 0 -- -- 59
2017-11-21 15:00:00 18.1 14 Sudoeste 49 Sur 0 -- -- 56
2017-11-21 14:00:00 18.6 22 Sur 59 Sudeste 0 -- -- 51
2017-11-21 13:00:00 19.2 23 Sur 67 Sudeste 0 -- -- 47
2017-11-21 12:00:00 18 37 Sur 72 Sur 0 -- -- 46
2017-11-21 11:00:00 18.3 40 Sur 67 Sur 0 -- -- 36
2017-11-21 10:00:00 18.6 37 Sur 69 Sur 0 -- -- 38
2017-11-21 09:00:00 17.5 34 Sur 74 Sur 0 -- -- 46
2017-11-21 08:00:00 17.3 32 Sur 67 Sudeste 0 -- -- 43
2017-11-21 07:00:00 17.7 39 Sur 76 Sudeste 0 -- -- 35
2017-11-21 06:00:00 18.1 30 Sur 57 Sur 0 -- -- 27
2017-11-21 05:00:00 18 26 Sudeste 58 Sudeste 0 -- -- 27
2017-11-21 04:00:00 18.4 28 Sudeste 56 Sur 0 -- -- 23
2017-11-21 03:00:00 18.8 30 Sudeste 57 Sudeste 0 -- -- 21
2017-11-21 02:00:00 18.9 29 Sudeste 53 Sudeste 0 -- -- 20
2017-11-21 01:00:00 18.9 25 Sudeste 51 Sudeste 0 -- -- 20
2017-11-21 00:00:00 19 30 Sur 48 Sudeste 0 -- -- 19
2017-11-20 23:00:00 19 30 Sudeste 59 Sur 0 -- -- 19
2017-11-20 22:00:00 19.2 36 Sur 56 Sur 0 -- -- 19
2017-11-20 21:00:00 18.7 29 Sur 49 Sur 0 -- -- 21
2017-11-20 20:00:00 18.2 23 Sur 46 Sudoeste 0 -- -- 23
2017-11-20 19:00:00 17.4 19 Sur 37 Sur 0 -- -- 36
2017-11-20 18:00:00 17.5 22 Sur 31 Sur 0 -- -- 49
2017-11-20 17:00:00 20 20 Sur 37 Sudeste 0 -- -- 42
2017-11-20 16:00:00 21.3 21 Sur 43 Sur 0 -- -- 37
2017-11-20 15:00:00 21.2 22 Sur 39 Sur 0 -- -- 38
2017-11-20 14:00:00 21.8 20 Sur 42 Sur 0 -- -- 38
2017-11-20 13:00:00 21.3 22 Sur 46 Sur 0 -- -- 39
2017-11-20 12:00:00 20.6 30 Sur 51 Sur 0 -- -- 39
2017-11-20 11:00:00 20.1 27 Sur 58 Sur 0 -- -- 39
2017-11-20 10:00:00 19.6 23 Sudeste 44 Sur 0 -- -- 40
2017-11-20 09:00:00 17 19 Sudeste 30 Sudeste 0 -- -- 48
2017-11-20 08:00:00 13.4 8 Norte 13 Norte 0 -- -- 98
2017-11-20 07:00:00 13.4 4 Norte 10 Norte 0 -- -- 98
2017-11-20 06:00:00 13.9 6 Norte 18 Noroeste 0 -- -- 97
2017-11-20 05:00:00 13.9 4 Este 14 Nordeste 0 -- -- 97
2017-11-20 04:00:00 13.9 3 Nordeste 11 Nordeste 0 -- -- 97
2017-11-20 03:00:00 14.1 4 Sudoeste 11 Noroeste 0 -- -- 97
2017-11-20 02:00:00 14.1 6 Sudeste 17 Noroeste 0 -- -- 97
2017-11-20 01:00:00 14 3 Sur 17 Nordeste 0 -- -- 97
2017-11-20 00:00:00 14 5 Este 14 Sur 0 -- -- 98
2017-11-19 23:00:00 14.1 5 Sudeste 15 Sudeste 0 -- -- 98
2017-11-19 22:00:00 14.4 5 Sudeste 18 Norte 0 -- -- 98
2017-11-19 21:00:00 14.3 6 Sur 18 Sudeste 0 -- -- 98
2017-11-19 20:00:00 14.5 5 Sudoeste 19 Sudeste 0 -- -- 98
2017-11-19 19:00:00 14.4 7 Sudeste 28 Sudeste 0 -- -- 97
2017-11-19 18:00:00 14.6 6 Sur 17 Sur 0 -- -- 96
2017-11-19 17:00:00 14.7 5 Sur 13 Sudeste 0 -- -- 94
2017-11-19 16:00:00 14.7 5 Este 17 Sudeste 0 -- -- 94
2017-11-19 15:00:00 15.1 6 Este 19 Sudeste 0 -- -- 94
2017-11-19 14:00:00 15.5 4 Sudeste 15 Este 0 -- -- 91
2017-11-19 13:00:00 16.8 6 Este 14 Este 0 -- -- 87
2017-11-19 12:00:00 16 4 Oeste 15 Norte 0 -- -- 87
2017-11-19 11:00:00 16.1 6 Norte 13 Norte 0 -- -- 87
2017-11-19 10:00:00 15.4 2 Noroeste 12 Norte 0 -- -- 90
2017-11-19 09:00:00 15.2 3 Sur 14 Sudoeste 0 -- -- 85
2017-11-19 08:00:00 13.2 6 Sudoeste 12 Sudoeste 0 -- -- 94
2017-11-19 07:00:00 13.9 3 Noroeste 12 Noroeste 0 -- -- 96
2017-11-19 06:00:00 13.9 5 Norte 14 Norte 0 -- -- 97
2017-11-19 05:00:00 13.7 2 Sudoeste 8 Noroeste 0 -- -- 96
2017-11-19 04:00:00 13.8 3 Norte 8 Noroeste 0 -- -- 95
2017-11-19 03:00:00 14.1 6 Norte 13 Noroeste 0 -- -- 95
2017-11-19 02:00:00 14 7 Noroeste 16 Noroeste 0 -- -- 96
2017-11-19 01:00:00 13.7 12 Noroeste 16 Noroeste 0 -- -- 95
2017-11-19 00:00:00 14.2 8 Noroeste 14 Noroeste 0 -- -- 93
2017-11-18 23:00:00 14.5 4 Norte 9 Noroeste 0 -- -- 92
2017-11-18 22:00:00 14.3 5 Sudoeste 12 Sudoeste 0 -- -- 91
2017-11-18 21:00:00 14.3 3 Sur 9 Este 0 -- -- 93
2017-11-18 20:00:00 14.4 3 Norte 11 Nordeste 0 -- -- 92
2017-11-18 19:00:00 14.6 7 Noroeste 10 Norte 0 -- -- 88
2017-11-18 18:00:00 15.9 6 Norte 12 Norte 0 -- -- 80
2017-11-18 17:00:00 17 5 Norte 10 Norte 0 -- -- 75
2017-11-18 16:00:00 16.9 4 Norte 11 Norte 0 -- -- 78
2017-11-18 15:00:00 17.7 3 Este 12 Norte 0 -- -- 79
2017-11-18 14:00:00 18 5 Noroeste 13 Norte 0 -- -- 78
2017-11-18 13:00:00 18.3 5 Noroeste 14 Este 0 -- -- 74
2017-11-18 12:00:00 18.8 4 Norte 15 Sudeste 0 -- -- 71
2017-11-18 11:00:00 19.5 8 Sudeste 15 Sudeste 0 -- -- 71
2017-11-18 10:00:00 17 6 Sudeste 12 Sudeste 0 -- -- 81
2017-11-18 09:00:00 14.8 3 Noroeste 14 Noroeste 0 -- -- 92
2017-11-18 08:00:00 13.5 12 Noroeste 20 Noroeste 0 -- -- 95
2017-11-18 07:00:00 13 13 Noroeste 17 Noroeste 0 -- -- 95
2017-11-18 06:00:00 13.2 6 Norte 9 Noroeste 0 -- -- 95
2017-11-18 05:00:00 13.3 5 Sudoeste 8 Sudoeste 0 -- -- 95
2017-11-18 04:00:00 13.4 4 Norte 10 Norte 0 -- -- 96
2017-11-18 03:00:00 13.6 4 Norte 9 Norte 0 -- -- 97
2017-11-18 02:00:00 13.4 5 Norte 10 Norte 0 -- -- 96
2017-11-18 01:00:00 13.7 7 Norte 16 Noroeste 0 -- -- 95
2017-11-18 00:00:00 14.1 12 Noroeste 15 Noroeste 0 -- -- 95
2017-11-17 23:00:00 14.2 10 Noroeste 14 Norte 0 -- -- 94
2017-11-17 22:00:00 14.5 8 Norte 12 Norte 0 -- -- 89
2017-11-17 21:00:00 14.8 3 Noroeste 6 Sudoeste 0 -- -- 86
2017-11-17 20:00:00 15.4 4 Sudoeste 13 Sudeste 0 -- -- 85
2017-11-17 19:00:00 16.1 5 Sudoeste 7 Sudoeste 0 -- -- 84
2017-11-17 18:00:00 16.8 3 Noroeste 10 Norte 0 -- -- 81
2017-11-17 17:00:00 16.6 6 Sudoeste 23 Sudeste 0 -- -- 83
2017-11-17 16:00:00 17 7 Sudeste 19 Sudeste 0 -- -- 83
2017-11-17 15:00:00 18.3 4 Sur 12 Sudeste 0 -- -- 76
2017-11-17 14:00:00 19.6 6 Norte 15 Norte 0 -- -- 68
2017-11-17 13:00:00 18.1 4 Norte 13 Norte 0 -- -- 72
2017-11-17 12:00:00 17.8 5 Norte 11 Noroeste 0 -- -- 75
2017-11-17 11:00:00 16.9 7 Norte 15 Nordeste 0 -- -- 79
2017-11-17 10:00:00 17.9 6 Noroeste 14 Noroeste 0 -- -- 76
2017-11-17 09:00:00 15.1 7 Norte 12 Norte 0 -- -- 89
2017-11-17 08:00:00 13.5 6 Norte 11 Noroeste 0 -- -- 93
2017-11-17 07:00:00 13.9 5 Norte 13 Norte 0 -- -- 88
2017-11-17 06:00:00 15.4 5 Sudoeste 16 Norte 0 -- -- 46
2017-11-17 05:00:00 16.6 5 Noroeste 11 Norte 0 -- -- 36
2017-11-17 04:00:00 14.1 3 Sudoeste 10 Sudoeste 0 -- -- 52
2017-11-17 03:00:00 13.8 5 Noroeste 17 Noroeste 0 -- -- 91
2017-11-17 02:00:00 14.5 8 Norte 23 Norte 0 -- -- 84
2017-11-17 01:00:00 17 12 Sudoeste 29 Norte 0 -- -- 50
2017-11-17 00:00:00 16.1 5 Sudoeste 18 Sudoeste 0 -- -- 41
2017-11-16 23:00:00 14.4 4 Sur 13 Norte 0 -- -- 51
2017-11-16 22:00:00 14 7 Oeste 16 Norte 0 -- -- 87
2017-11-16 21:00:00 14.7 11 Norte 15 Norte 0 -- -- 78
2017-11-16 20:00:00 14.4 2 Sudoeste 8 Noroeste 0 -- -- 80
2017-11-16 19:00:00 14.4 6 Norte 9 Norte 0 -- -- 90
2017-11-16 18:00:00 17 2 Este 9 Sudeste 0 -- -- 81
2017-11-16 17:00:00 19.1 5 Sudeste 9 Sudeste 0 -- -- 74
2017-11-16 16:00:00 19.5 3 Nordeste 12 Sudeste 0 -- -- 74
2017-11-16 15:00:00 19.4 7 Sur 13 Sur 0 -- -- 74
2017-11-16 14:00:00 19.8 6 Sur 15 Sudeste 0 -- -- 75
2017-11-16 13:00:00 19.9 7 Sur 14 Sudeste 0 -- -- 70
2017-11-16 12:00:00 20.2 9 Sudeste 17 Sudeste 0 -- -- 69
2017-11-16 11:00:00 19.7 5 Sudoeste 13 Sur 0 -- -- 71
2017-11-16 10:00:00 18.4 5 Sudeste 9 Sur 0 -- -- 70
2017-11-16 09:00:00 15.1 4 Norte 11 Norte 0 -- -- 65
2017-11-16 08:00:00 14.2 10 Noroeste 14 Noroeste 0 -- -- 52
2017-11-16 07:00:00 14 9 Noroeste 15 Norte 0 -- -- 61
2017-11-16 06:00:00 13.3 11 Noroeste 14 Noroeste 0 -- -- 75
2017-11-16 05:00:00 13.5 9 Norte 12 Noroeste 0 -- -- 74
2017-11-16 04:00:00 13.5 9 Norte 10 Noroeste 0 -- -- 67
2017-11-16 03:00:00 12.9 10 Norte 14 Norte 0 -- -- 95
2017-11-16 02:00:00 13.1 10 Noroeste 13 Noroeste 0 -- -- 95
2017-11-16 01:00:00 13.1 10 Noroeste 15 Noroeste 0 -- -- 94
2017-11-16 00:00:00 13.2 4 Sudoeste 9 Sudoeste 0 -- -- 88
2017-11-15 23:00:00 14.2 0 Calma 7 Norte 0 -- -- 87
2017-11-15 22:00:00 14.6 3 Noroeste 12 Norte 0 -- -- 89
2017-11-15 21:00:00 14.6 4 Norte 10 Norte 0 -- -- 89
2017-11-15 20:00:00 14.9 4 Norte 9 Noroeste 0 -- -- 88
2017-11-15 19:00:00 15 3 Noroeste 8 Nordeste 0 -- -- 88
2017-11-15 18:00:00 15.6 3 Este 11 Este 0 -- -- 84
2017-11-15 17:00:00 16.5 6 Este 15 Norte 0 -- -- 81
2017-11-15 16:00:00 17.7 6 Norte 16 Este 0 -- -- 78
2017-11-15 15:00:00 18.5 6 Sudoeste 19 Nordeste 0 -- -- 74
2017-11-15 14:00:00 18 6 Nordeste 21 Nordeste 0 -- -- 74
2017-11-15 13:00:00 19.7 5 Sudoeste 16 Sudeste 0 -- -- 67
2017-11-15 12:00:00 19.9 6 Sudeste 19 Sudeste 0 -- -- 68
2017-11-15 11:00:00 17.5 5 Sudeste 14 Este 0 -- -- 77
2017-11-15 10:00:00 15.6 4 Sudeste 12 Este 0 -- -- 88
2017-11-15 09:00:00 14.7 6 Este 12 Este 0 -- -- 90
2017-11-15 08:00:00 13.6 3 Norte 10 Nordeste 0 -- -- 95
2017-11-15 07:00:00 12.6 4 Sur 13 Sudoeste 0 -- -- 87
2017-11-15 06:00:00 13.5 2 Sur 8 Norte 0 -- -- 93
2017-11-15 05:00:00 13.5 2 Norte 9 Noroeste 0 -- -- 92
2017-11-15 04:00:00 13.6 3 Sudoeste 9 Norte 0 -- -- 92
2017-11-15 03:00:00 13.9 6 Norte 13 Noroeste 0 -- -- 93
2017-11-15 02:00:00 14.1 2 Norte 9 Nordeste 0 -- -- 91
2017-11-15 01:00:00 14.1 2 Sudoeste 8 Norte 0 -- -- 90
2017-11-15 00:00:00 14.1 2 Sur 8 Este 0 -- -- 89